Regional Weather Roundup
Issued by NWS

Home | Current Version | Previous Version | Graphics & Text | Print | Product List | Glossary On
Versions: 1 2 3 4 5 6 7 8 9 10 11 12 13 14 15 16 17 18 19 20 21 22 23 24 25 26 27 28 29 30 31 32 33 34 35 36 37 38 39 40 41 42 43 44 45 46 47 48 49 50
000
ASUS43 KOAX 051110
RWRNE

WEATHER ROUNDUP FOR NEBRASKA
NATIONAL WEATHER SERVICE OMAHA NE
600 AM CDT SAT SEP 05 2015

NOTES: SATELLITE DATA IS BEING USED TO AUGMENT CLOUD COVER ABOVE
       12000 FEET.
       "FAIR" INDICATES FEW OR NO CLOUDS BELOW 12,000 FEET WITH NO
       SIGNIFICANT WEATHER AND/OR OBSTRUCTIONS TO VISIBILITY.

  * THESE STATIONS DO NOT REPORT WEATHER SUCH AS RAIN...SNOW OR FOG.

NEZ001>004-019>022-054>056-051200-
NEBRASKA PANHANDLE

CITY           SKY/WX    TMP DP  RH WIND       PRES   REMARKS
SCOTTSBLUFF    CLOUDY    67  57  70 CALM      29.86S
ALLIANCE       CLOUDY    66  59  78 N3        29.86S
CHADRON        CLOUDY    69  59  70 CALM      29.83R
KIMBALL        CLOUDY    62  52  69 W8        29.90S
SIDNEY         CLOUDY    65  58  78 NW5       29.88R
$$

NEZ057>060-069>072-079>082-051200-
SOUTHWEST NEBRASKA

CITY           SKY/WX    TMP DP  RH WIND       PRES   REMARKS
NORTH PLATTE   PTCLDY    72  59  63 SE10      29.83S
IMPERIAL       MOCLDY    74  54  49 S13       29.85R
LEXINGTON      PTCLDY    74  61  64 S15       29.86R
MCCOOK         CLEAR     75  58  55 S8        29.85S
OGALLALA       CLOUDY    72  56  58 S10       29.82S
$$

NEZ005>010-023>029-035>040-094-051200-
NORTH CENTRAL NEBRASKA

CITY           SKY/WX    TMP DP  RH WIND       PRES   REMARKS
VALENTINE      CLOUDY    71  61  70 SE3       29.80S
AINSWORTH      CLOUDY    72  63  72 S9        29.82S
BROKEN BOW     CLEAR     73  61  65 S10       29.86R
O`NEILL        CLOUDY    73  64  72 S9        29.83S
ORD            CLEAR     73  62  68 S9        29.84S
THEDFORD       MOCLDY    74  61  62 S10       29.84R
$$

NEZ041-046>049-061>064-073>077-083>087-051200-
SOUTH CENTRAL NEBRASKA

CITY           SKY/WX    TMP DP  RH WIND       PRES   REMARKS
GRAND ISLAND   CLEAR     72  66  81 S14       29.89S
AURORA         CLEAR     73  69  87 S15       29.89F
HASTINGS       CLEAR     74  65  73 MISG      29.90S
HEBRON         CLEAR     73  66  78 S9        29.92F
HOLDREGE       CLEAR     73  60  63 S12       29.88F
KEARNEY *      CLEAR     73  61  64 S14       29.87F
YORK           CLEAR     73  68  83 S10       29.91S
$$

NEZ011>018-030>034-042>045-051200-
NORTHEAST NEBRASKA

CITY           SKY/WX    TMP DP  RH WIND       PRES   REMARKS
NORFOLK        CLOUDY    74  68  81 S16G23    29.87R
ALBION         MOCLDY    73  65  78 S9        29.87S
BLAIR          PTCLDY    73  67  81 S10       29.93R
COLUMBUS *     MOCLDY    75  64  69 S8        29.89S
FREMONT        MOCLDY    75  68  79 SE7       29.91S
TEKAMAH        MOCLDY    74  70  87 SE9       29.91R
WAYNE          MOCLDY    71  69  91 S5        29.89R
$$

NEZ050>053-065>068-078-088>093-051200-
SOUTHEAST NEBRASKA

CITY           SKY/WX    TMP DP  RH WIND       PRES   REMARKS
LINCOLN        MOCLDY    76  69  79 S13       29.92S
OMAHA EPPLEY   MOCLDY    76  69  79 S17       29.93S
BEATRICE       PTCLDY    73  69  86 S10       29.94S
FALLS CITY     CLEAR     72  68  87 SE7       29.96R
NEBRASKA CITY  CLEAR     71  69  92 S8        29.96R
PLATTSMOUTH    PTCLDY    72  67  85 SE7       29.95R
$$

NEZ044-045-051>053-067-051200-
OMAHA AREA

CITY           SKY/WX    TMP DP  RH WIND       PRES   REMARKS
OMAHA EPPLEY   MOCLDY    76  69  79 S17       29.93S
BLAIR          PTCLDY    73  67  81 S10       29.93R
FREMONT        MOCLDY    75  68  79 SE7       29.91S
MILLARD        PTCLDY    74  69  87 SE9       29.92S
OFFUTT AFB     PTCLDY    73  69  87 SE8       29.93S
PLATTSMOUTH    PTCLDY    72  67  85 SE7       29.95R
WAHOO          FAIR      73  70  91 S7        29.91S
$$



USA.gov is the U.S. government's official web portal to all federal, state and local government web resources and services.